Regional Weather Roundup
Issued by NWS Cleveland, OH

Home | Current Version | Previous Version | Text Only | Print | Product List | Glossary Off
Versions: 1 2 3 4 5 6 7 8 9 10 11 12 13 14 15 16 17 18 19 20 21 22 23 24 25 26 27 28 29 30 31 32 33 34 35 36 37 38 39 40 41 42 43 44 45 46 47 48 49 50

000
ASUS41 KCLE 290810
RWRCLE
OHIO REGIONAL WEATHER ROUNDUP
NATIONAL WEATHER SERVICE WILMINGTON, OH
400 AM EDT THU JUN 29 2017

NOTE: "FAIR" INDICATES FEW OR NO CLOUDS BELOW 12,000 FEET WITH NO
SIGNIFICANT WEATHER AND/OR OBSTRUCTIONS TO VISIBILITY.

OHZ001>008-015>018-024>027-034-035-043-044-290900-
   NORTHWEST OHIO

CITY           SKY/WX    TMP DP  RH WIND       PRES   REMARKS
DEFIANCE       FAIR      68  54  60 SW8       29.92S
FINDLAY        FAIR      68  54  60 S14       29.94S
TOLEDO EXPRESS CLOUDY    70  55  59 S13       29.91S
TOLEDO EXEC    CLOUDY    71  55  56 S13       29.93S
LIMA           FAIR      69  55  60 S15G24    29.96S
$$

OHZ009>014-019>023-028>033-038-089-290900-
   NORTHEAST OHIO

CITY           SKY/WX    TMP DP  RH WIND       PRES   REMARKS
CLE-HOPKINS    MOCLDY    69  53  56 S10       30.01R
CLE-LAKEFRONT  FAIR      69  52  54 S12       29.98S
CUY CO. ARPT   NOT AVBL
LORAIN-ELYRIA  FAIR      65  50  58 S9        29.99S
ASHTABULA      CLOUDY    64  54  69 S8        30.03S
AKRON-CANTON   FAIR      63  51  65 S8        30.03S
WOOSTER        FAIR      62  53  72 SW6       30.04R
MANSFIELD      FAIR      65  53  65 S12       30.01S
YOUNGSTOWN     CLOUDY    64  52  64 S6        30.05R
$$

OHZ042-051>053-060>062-070>072-077>081-290900-
  SOUTHWEST OHIO

CITY           SKY/WX    TMP DP  RH WIND       PRES   REMARKS
CINC-COVINGTON CLOUDY    64  57  78 S7        30.02S
CINC-LUNKEN    FAIR      61  59  93 CALM      30.03S
HAMILTON       FAIR      63  57  81 CALM      30.01F
DAYTON         FAIR      66  54  65 S13       30.00F
WRIGHT-PAT AFB FAIR      62  57  83 SE5       29.99F
DAYTON GENERAL FAIR      63  55  75 S7        30.00F
WILMINGTON     FAIR      63  58  83 S9        30.02F
$$

OHZ036-037-039>041-045>050-054>059-063>069-073>076-082>088-290900-
  CENTRAL AND SOUTHEAST OHIO

CITY           SKY/WX    TMP DP  RH WIND       PRES   REMARKS
COLUMBUS       MOCLDY    64  55  72 S5        30.02S
OSU AIRPORT    FAIR      64  56  75 S7        30.02S
BOLTON FIELD   FAIR      60  55  85 S5        30.02F
RICKENBACK AFB FAIR      62  56  81 S6        30.02S
NEWARK         FAIR      61  54  77 SW5       30.03R
MARION         FAIR      63  54  72 S12       30.00F
LANCASTER      FAIR      61  55  81 S5        30.04R
ZANESVILLE     FAIR      59  53  80 S5        30.04S
NEW PHILLY     FAIR      58  55  90 SE6       30.05R
$$



USA.gov is the U.S. government's official web portal to all federal, state and local government web resources and services.